SCP
0 0 0 0 0 0 0 0 0 0 0 0 0 0 0 0 0 0 0 0 0 0 0 0 0 0 0 0 0 0 0 0 0 0 0 0 0 0 0 0 0 0 0 0 0 0 0 0 0
0 0 0 0 0 0 0 0 0 0 0 0 0 0 0 0 0 0 0 0 0 0 0 0 0 0 0 0 0 0 0 0 0 0 0 0 0 0 0 0 0 0 0 0 0 0 0 0 0
0 0 0 0 0 0 0 0 0 0 0 0 0 0 0 0 0 0 0 0 0 0 0 0 0 0 0 0 0 0 0 0 0 0 0 0 0 0 0 0 0 0 0 0 0 0 0 0 0
0 0 0 0 0 0 0 0 0 0 0 0 0 0 0 0 0 0 0 0 0 0 0 0 0 0 0 0 0 0 0 0 0 0 0 0 0 0 0 0 0 0 0 0 0 0 0 0 0
0 0 0 0 0 0 0 0 0 0 0 0 0 0 0 0 0 0 0 0 0 0 0 0 0 0 0 0 0 0 0 0 0 0 0 0 0 0 0 0 0 0 0 0 0 0 0 0 0
0 0 0 0 0 0 0 0 0 0 0 0 0 0 0 0 0 0 0 0 0 0 0 0 0 0 0 0 0 0 0 0 0 0 0 0 0 0 0 0 0 0 0 0 0 0 0 0 0
0 0 0 0 0 0 0 0 0 0 0 0 0 0 0 0 0 0 0 0 0 0 0 0 0 0 0 0 0 0 0 0 0 0 0 0 0 0 0 0 0 0 0 0 0 0 0 0 0
0 0 0 0 0 0 0 0 0 0 0 0 0 0 0 0 0 0 0 0 0 0 0 0 0 0 0 0 0 0 0 0 0 0 0 0 0 0 0 0 0 0 0 0 0 0 0 0 0
0 0 0 0 0 0 0 0 0 0 0 0 0 0 0 0 0 0 0 0 0 0 0 0 0 0 0 0 0 0 0 0 0 0 0 0 0 0 0 0 0 0 0 0 0 0 0 0 0
0 0 0 0 0 0 0 0 0 0 0 0 0 0 0 0 0 0 0 0 0 0 0 0 0 0 0 0 0 0 0 0 0 0 0 0 0 0 0 0 0 0 0 0 0 0 0 0 0
0 0 0 0 0 0 0 0 0 0 0 0 0 0 0 0 0 0 0 0 0 0 0 0 0 0 0 0 0 0 0 0 0 0 0 0 0 0 0 0 0 0 0 0 0 0 0 0 0
0 0 0 0 0 0 0 0 0 0 0 0 0 0 0 0 0 0 0 0 0 0 0 0 0 0 0 0 0 0 0 0 0 0 0 0 0 0 0 0 0 0 0 0 0 0 0 0 0
0 0 0 0 0 0 0 0 0 0 0 0 0 0 0 0 0 0 0 0 0 0 0 0 0 0 0 0 0 0 0 0 0 0 0 0 0 0 0 0 0 0 0 0 0 0 0 0 0
0 0 0 0 0 0 0 0 0 0 0 0 0 0 0 0 0 0 0 0 0 0 0 0 0 0 0 0 0 0 0 0 0 0 0 0 0 0 0 0 0 0 0 0 0 0 0 0 0
0 0 0 0 0 0 0 0 0 0 0 0 0 0 0 0 0 0 0 0 0 0 0 0 0 0 0 0 0 0 0 0 0 0 0 0 0 0 0 0 0 0 0 0 0 0 0 0 0
0 0 0 0 0 0 0 0 0 0 0 0 0 0 0 0 0 0 0 0 0 0 0 0 0 0 0 0 0 0 0 0 0 0 0 0 0 0 0 0 0 0 0 0 0 0 0 0 0
0 0 0 0 0 0 0 0 0 0 0 0 0 0 0 0 0 0 0 0 0 0 0 0 0 0 0 0 0 0 0 0 0 0 0 0 0 0 0 0 0 0 0 0 0 0 0 0 0
0 0 0 0 0 0 0 0 0 0 0 0 0 0 0 0 0 0 0 0 0 0 0 0 0 0 0 0 0 0 0 0 0 0 0 0 0 0 0 0 0 0 0 0 0 0 0 0 0
0 0 0 0 0 0 0 0 0 0 0 0 0 0 0 0 0 0 0 0 0 0 0 0 0 0 0 0 0 0 0 0 0 0 0 0 0 0 0 0 0 0 0 0 0 0 0 0 0
0 0 0 0 0 0 0 0 0 0 0 0 0 0 0 0 0 0 0 0 0 0 0 0 0 0 0 0 0 0 0 0 0 0 0 0 0 0 0 0 0 0 0 0 0 0 0 0 0
0 0 0 0 0 0 0 0 0 0 0 0 0 0 0 0 0 0 0 0 0 0 0 0 0 0 0 0 0 0 0 0 0 0 0 0 0 0 0 0 0 0 0 0 0 0 0 0 0
0 0 0 0 0 0 0 0 0 0 0 0 0 0 0 0 0 0 0 0 0 0 0 0 0 0 0 0 0 0 0 0 0 0 0 0 0 0 0 0 0 0 0 0 0 0 0 0 0
0 0 0 0 0 0 0 0 0 0 0 0 0 0 0 0 0 0 0 0 0 0 0 0 0 0 0 0 0 0 0 0 0 0 0 0 0 0 0 0 0 0 0 0 0 0 0 0 0
0 0 0 0 0 0 0 0 0 0 0 0 0 0 0 0 0 0 0 0 0 0 0 0 0 0 0 0 0 0 0 0 0 0 0 0 0 0 0 0 0 0 0 0 0 0 0 0 0
0 0 0 0 0 0 0 0 0 0 0 0 0 0 0 0 0 0 0 0 0 0 0 0 0 0 0 0 0 0 0 0 0 0 0 0 0 0 0 0 0 0 0 0 0 0 0 0 0
0 0 0 0 0 0 0 0 0 0 0 0 0 0 0 0 0 0 0 0 0 0 0 0 0 0 0 0 0 0 0 0 0 0 0 0 0 0 0 0 0 0 0 0 0 0 0 0 0
0 0 0 0 0 0 0 0 0 0 0 0 0 0 0 0 0 0 0 0 0 0 0 0 0 0 0 0 0 0 0 0 0 0 0 0 0 0 0 0 0 0 0 0 0 0 0 0 0
0 0 0 0 0 0 0 0 0 0 0 0 0 0 0 0 0 0 0 0 0 0 0 0 0 0 0 0 0 0 0 0 0 0 0 0 0 0 0 0 0 0 0 0 0 0 0 0 0
0 0 0 0 0 0 0 0 0 0 0 0 0 0 0 0 0 0 0 0 0 0 0 0 0 0 0 0 0 0 0 0 0 0 0 0 0 0 0 0 0 0 0 0 0 0 0 0 0
0 0 0 0 0 0 0 0 0 0 0 0 0 0 0 0 0 0 0 0 0 0 0 0 0 0 0 0 0 0 0 0 0 0 0 0 0 0 0 0 0 0 0 0 0 0 0 0 0
Wind_Speed
9 10 8 2 3 4 3 4 2 4 3 7 5 3 4 4 5 5 4 7 10 14 16 17 18 17 15 14 12 11 11 10 10 10 9 9 9 9 10 10 11 11 11 11 11 12 12 12 12
9 8 4 3 4 5 2 4 4 7 6 3 0 2 3 4 8 9 5 7 11 14 15 14 18 17 16 14 13 12 11 10 10 9 9 8 8 9 9 9 9 10 10 10 10 11 11 11 11
9 7 4 3 5 3 4 5 6 5 4 1 2 1 1 4 6 6 6 8 9 12 14 15 19 18 16 15 14 13 12 10 10 9 8 8 8 8 8 8 8 8 9 9 9 9 10 10 10
5 3 4 5 6 2 4 5 6 1 3 1 3 4 3 6 5 7 7 7 9 11 12 15 20 18 16 15 14 13 12 11 10 9 8 7 7 7 7 7 7 7 7 7 8 8 8 8 8
3 4 5 5 4 2 2 5 3 4 1 3 1 5 4 5 9 10 7 7 8 10 12 16 19 18 16 15 14 13 12 11 10 9 8 7 7 7 7 6 6 5 5 6 6 7 7 7 7
4 4 5 5 3 3 2 4 1 4 3 1 1 3 5 5 8 7 7 5 6 10 12 15 18 17 16 15 15 14 12 11 10 9 8 7 7 7 6 5 5 4 4 4 4 5 5 5 5
4 4 6 6 2 1 3 5 4 6 6 5 4 4 5 6 5 5 6 4 6 9 11 12 11 12 15 15 14 14 13 11 10 10 9 8 7 7 6 5 4 3 3 2 2 2 3 3 3
3 4 7 6 3 1 5 4 2 3 6 5 3 3 4 4 3 4 4 3 5 7 9 13 10 9 9 9 12 13 12 12 11 10 8 7 7 6 6 6 5 4 3 3 2 1 1 2 2
3 3 6 6 3 3 4 2 2 2 3 6 4 1 6 6 4 4 4 3 3 5 7 11 11 10 9 8 10 10 11 10 9 8 8 7 4 5 6 7 8 7 6 5 5 5 5 5 6
3 3 7 5 5 6 6 5 5 4 6 6 2 5 6 5 4 4 5 7 7 7 6 7 10 10 9 7 7 6 6 6 6 5 7 5 4 3 4 7 9 8 7 7 8 8 7 6 4
4 5 6 5 5 5 6 6 5 4 6 4 4 5 3 1 3 5 6 6 8 9 7 6 7 10 8 5 5 4 3 4 5 6 7 5 4 2 3 3 4 4 5 4 6 6 4 5 4
5 7 6 4 4 2 5 6 6 6 5 2 3 3 3 4 3 2 3 4 6 9 9 6 6 8 8 7 5 5 4 3 3 4 5 4 3 2 2 2 4 4 3 5 4 3 5 6 6
6 6 5 2 1 4 6 7 7 7 3 2 1 1 2 3 3 2 1 1 4 7 9 7 6 7 7 6 5 4 4 4 4 4 4 4 3 3 3 3 3 3 3 3 3 4 5 5 5
5 6 7 6 5 4 5 7 5 4 1 1 1 1 3 4 4 3 2 0 3 6 8 7 6 7 7 5 4 4 4 4 4 4 4 4 3 3 3 3 3 3 3 3 3 4 4 4 4
4 7 9 8 6 2 2 7 8 4 2 3 2 5 5 4 4 4 3 1 3 5 7 7 6 6 7 6 5 3 3 3 3 3 4 4 4 3 3 3 3 3 3 4 3 4 4 4 4
6 6 6 4 5 5 2 6 3 6 3 2 2 5 6 6 6 5 4 4 4 6 7 6 4 4 5 5 4 2 2 2 2 2 2 3 4 4 3 3 3 4 3 3 3 3 3 4 4
7 6 7 3 5 5 5 6 2 5 4 3 3 5 6 6 7 6 5 5 6 7 7 7 5 4 4 4 3 2 2 1 1 1 1 3 4 4 3 3 3 3 3 3 4 4 4 5 5
5 6 6 2 4 3 5 7 6 6 5 5 5 6 7 7 6 6 6 6 7 7 7 7 6 4 5 4 3 3 2 1 1 0 1 2 2 3 3 3 4 4 3 4 4 5 5 5 5
6 7 9 8 1 2 7 9 8 5 6 6 6 7 8 7 7 6 6 7 7 7 7 7 6 4 4 3 3 2 1 1 1 1 2 2 3 3 3 3 3 4 4 5 5 5 6 5 4
5 8 10 8 1 1 7 10 8 6 8 8 8 9 9 8 7 7 7 6 7 7 7 7 6 5 5 4 3 2 1 1 1 0 1 2 3 3 2 3 3 4 4 5 5 5 4 4 3
7 8 9 7 5 6 6 8 7 6 6 6 8 9 9 9 8 7 7 7 7 6 6 6 6 6 6 4 3 2 1 1 0 1 1 2 3 3 3 3 3 4 4 4 5 5 6 5 4
7 4 4 4 4 5 4 5 4 8 7 7 7 8 9 9 8 8 8 7 7 6 6 6 6 6 5 4 3 2 1 0 0 0 1 3 3 3 3 3 4 4 4 5 6 6 5 5 5
2 2 2 4 5 6 6 6 6 11 11 11 9 9 9 9 9 8 8 8 7 5 5 6 6 6 4 3 3 2 2 1 1 1 2 2 2 2 3 4 4 4 4 5 6 6 6 5 6
3 1 4 4 3 6 9 9 5 10 14 15 12 11 10 10 9 8 7 7 7 5 5 5 6 5 4 3 3 3 2 2 2 3 3 3 2 2 3 3 3 4 4 6 6 6 7 7 7
3 3 3 4 4 8 3 5 5 6 10 14 15 13 11 10 9 9 8 7 7 6 5 5 5 4 3 3 2 2 1 1 2 2 3 3 3 3 4 3 3 4 5 6 6 6 7 7 8
8 6 5 3 3 0 1 5 1 5 4 7 13 14 12 11 9 9 8 8 7 7 5 5 5 4 3 2 1 1 1 1 1 2 3 3 3 3 4 4 5 6 6 7 6 6 7 7 8
6 7 4 3 6 4 5 5 3 3 3 4 10 13 12 11 10 9 8 8 7 6 5 5 4 3 2 1 1 1 1 2 2 3 3 3 4 4 5 5 6 7 7 7 7 6 7 7 7
4 2 4 4 4 5 6 6 6 7 7 6 8 11 10 10 9 9 8 7 7 6 5 4 4 3 2 1 1 1 2 2 3 3 4 5 5 5 5 6 7 7 7 7 7 7 7 8 8
6 4 4 4 4 2 4 2 3 8 9 9 9 10 10 10 9 8 7 7 7 6 5 4 3 2 1 0 0 1 2 3 3 4 5 4 5 5 6 7 7 7 8 7 7 8 8 8 8
7 8 7 4 5 4 3 2 2 5 6 8 8 8 9 9 8 8 7 7 6 5 4 4 3 2 1 1 1 2 3 3 4 4 5 5 6 6 7 7 7 8 8 8 8 9 8 8 9
Wind_Direction
275 255 244 252 250 239 239 85 61 66 57 56 44 343 336 41 42 88 151 135 127 137 146 161 158 157 156 152 148 143 135 126 118 111 105 99 95 88 83 76 72 68 65 64 63 62 61 60 61
283 259 248 243 250 249 149 112 85 59 61 51 319 274 303 77 91 112 134 124 130 139 146 160 159 160 159 156 152 148 142 135 128 120 113 107 100 95 87 79 73 69 66 64 62 62 62 59 59
272 265 250 232 249 289 80 83 70 77 81 353 283 211 356 54 75 92 120 134 133 138 148 158 160 162 162 160 157 153 148 144 138 130 125 119 108 101 93 84 77 71 67 64 61 60 61 60 57
258 237 246 251 258 47 46 78 65 29 124 153 316 307 99 66 69 103 127 147 140 141 146 153 162 164 165 164 161 157 154 151 147 141 139 133 122 112 101 93 85 77 70 65 61 58 57 57 56
239 248 240 254 267 86 72 60 51 303 220 150 95 312 50 77 97 112 132 154 148 145 143 152 164 167 168 167 164 161 159 158 156 151 149 145 136 125 115 108 100 89 78 69 61 55 53 49 50
254 256 258 249 216 119 105 84 29 285 316 31 130 302 83 103 96 107 126 164 151 140 140 151 166 169 171 172 169 166 165 165 165 161 158 155 148 141 136 132 124 112 95 78 64 54 47 43 39
276 278 283 295 326 91 80 60 356 344 340 358 25 334 94 74 88 116 132 167 142 136 137 147 164 170 174 174 173 171 171 171 172 170 168 166 162 160 157 155 154 149 140 119 87 54 35 25 18
310 303 282 283 295 355 77 74 357 337 323 344 8 310 85 114 112 109 116 136 131 137 143 149 163 168 171 172 175 173 174 175 177 174 169 168 171 175 176 176 183 183 188 198 210 231 266 291 299
290 283 285 299 337 358 62 42 336 354 275 275 254 268 115 128 127 134 133 147 146 149 153 153 163 168 169 170 174 170 174 177 176 171 163 161 176 183 189 195 189 196 209 223 233 239 248 255 257
228 268 280 326 1 358 1 355 334 314 298 295 332 70 110 136 161 182 189 182 175 175 175 164 163 164 166 170 162 167 169 169 174 173 166 176 197 186 172 172 181 202 217 232 242 246 253 253 245
253 259 290 330 20 11 335 314 304 291 288 342 6 2 8 294 222 212 216 200 179 172 171 173 164 157 159 154 154 161 162 165 183 188 172 179 187 167 147 156 174 200 214 229 239 235 230 229 228
272 286 296 327 52 358 301 303 307 291 286 26 38 360 321 299 283 244 226 212 165 156 163 172 162 150 155 153 156 158 160 164 173 181 175 171 172 184 183 183 184 193 197 207 213 208 225 229 228
265 274 290 301 241 247 268 274 271 270 291 45 45 322 341 355 348 340 331 213 152 148 155 165 160 150 150 151 159 163 165 165 168 166 181 182 173 185 206 203 202 209 209 204 209 222 239 243 240
327 323 299 272 249 246 258 269 252 250 144 184 193 90 51 34 20 12 14 180 152 142 147 155 161 154 149 153 158 164 171 166 168 166 186 195 190 193 205 214 218 221 223 226 223 231 241 244 240
298 281 272 243 214 190 264 270 229 190 161 221 170 115 90 64 50 40 38 58 125 127 132 142 156 154 151 161 168 161 165 163 168 172 187 196 200 211 214 219 229 228 228 231 234 246 256 260 258
245 254 258 186 171 143 193 278 128 136 172 207 125 109 101 80 66 53 53 65 88 103 112 120 127 144 147 152 157 154 165 162 160 168 189 207 211 213 221 227 234 237 238 237 236 237 251 258 257
235 247 257 173 175 166 213 271 181 162 185 193 152 118 106 90 74 66 65 72 85 98 103 109 116 136 133 134 133 121 106 101 118 156 201 221 226 225 225 232 239 248 250 246 244 241 237 254 261
304 308 308 301 165 202 244 264 249 202 194 188 153 125 108 94 84 79 75 72 80 92 103 108 110 113 112 106 105 91 79 60 56 350 259 257 249 246 239 239 247 256 259 256 249 251 249 247 254
316 310 302 299 270 222 256 261 250 200 186 184 158 134 119 111 105 98 93 90 88 89 99 106 110 108 105 101 108 115 139 174 193 227 252 269 268 263 252 246 248 248 251 253 251 254 260 262 260
288 283 282 286 144 213 268 270 253 204 195 177 157 141 132 124 114 107 100 93 92 94 99 104 106 101 93 95 100 100 102 99 110 310 287 289 282 271 262 255 253 250 251 258 259 255 259 262 246
255 256 270 292 318 257 257 275 231 176 159 148 146 138 135 136 130 119 107 98 90 86 90 97 98 96 94 97 94 83 76 348 320 250 239 254 262 262 258 261 262 265 258 257 257 252 250 258 255
262 277 281 299 301 284 222 276 198 166 162 164 158 144 139 131 125 120 113 104 98 94 94 98 99 98 99 102 97 102 99 68 319 288 263 269 259 252 249 254 261 264 262 262 261 256 249 249 257
241 58 309 274 268 278 257 252 242 162 180 182 176 158 144 136 129 123 119 116 111 108 106 106 103 103 104 102 105 90 65 26 344 330 307 305 294 269 254 245 248 256 258 261 263 265 258 248 247
109 221 250 243 247 259 231 212 249 182 190 182 175 159 147 138 132 128 125 122 119 117 112 114 112 109 106 99 92 82 65 13 348 334 328 317 305 294 283 272 259 258 259 259 260 258 257 253 253
179 211 248 216 214 243 224 197 254 172 174 175 170 158 150 144 142 145 146 141 138 137 135 127 118 116 108 95 84 78 64 356 319 318 317 311 304 298 294 300 291 282 274 270 266 263 260 257 256
195 214 236 270 261 284 207 231 244 76 84 152 156 151 149 152 153 157 155 148 145 147 143 129 123 121 113 103 84 63 37 343 304 309 304 295 288 287 296 301 292 285 282 280 275 270 264 262 257
196 212 249 307 298 278 243 190 116 99 83 121 144 147 155 158 156 157 154 151 151 149 142 135 131 124 120 114 85 44 345 312 305 302 295 288 286 291 297 296 291 286 283 280 278 272 269 267 262
289 263 171 198 246 261 257 209 186 173 178 174 161 158 159 157 157 158 157 154 149 145 140 137 134 137 136 112 72 326 305 305 302 299 294 292 293 297 297 294 290 288 286 284 281 279 275 274 271
191 229 225 230 260 270 292 341 31 157 169 174 174 165 162 162 161 159 156 150 143 141 147 148 145 145 144 156 292 298 298 300 298 292 290 294 297 299 295 292 292 291 289 287 285 282 283 282 282
197 204 204 214 239 223 260 286 44 98 136 155 161 158 157 157 157 155 152 148 149 156 160 161 166 170 178 210 284 289 290 292 292 292 296 299 297 295 293 292 291 290 290 289 288 289 290 289 290